When you browse on this site, cookies collect data to enhance your experience and personalize the content and advertising you see.
Visit our Privacy Policy to learn more. By continuing to use the site, you agree to this use of cookies and data.
  • In Switzerland
  • List of Countries
  • For 7 days
  • Water Temperature
  • Satellite Maps
  • Weather Map
  • Weather Widgets
  • user-avatar
    Login

    Hourly Weather Xixi

    Today, 27 May, Monday

    Time Temperature Precipitation Wind Pressure Humidity
    00:00 +22°C° 1.7 mm 0 mps 705 mmHg 95%
    01:00 +23°C° 0 mm 1 mps 705 mmHg 95%
    02:00 +23°C° 0.5 mm 1 mps 705 mmHg 95%
    03:00 +23°C° 0.5 mm 1 mps 705 mmHg 95%
    04:00 +23°C° 0.5 mm 1 mps 705 mmHg 95%
    05:00 +24°C° 0.1 mm 1 mps 706 mmHg 92%
    06:00 +25°C° 0.1 mm 1 mps 707 mmHg 88%
    07:00 +26°C° 0.1 mm 1 mps 707 mmHg 84%
    08:00 +27°C° 0 mm 3 mps 708 mmHg 77%
    09:00 +28°C° 0 mm 4 mps 708 mmHg 70%
    10:00 +29°C° 0 mm 5 mps 708 mmHg 63%
    11:00 +29°C° 0.1 mm 5 mps 708 mmHg 62%
    12:00 +29°C° 0.1 mm 5 mps 708 mmHg 62%
    13:00 +29°C° 0.1 mm 6 mps 708 mmHg 62%
    14:00 +29°C° 0 mm 6 mps 708 mmHg 60%
    15:00 +28°C° 0 mm 5 mps 708 mmHg 57%
    16:00 +28°C° 0 mm 5 mps 708 mmHg 54%
    17:00 +26°C° 0 mm 4 mps 708 mmHg 62%
    18:00 +25°C° 0 mm 3 mps 708 mmHg 70%
    19:00 +23°C° 0 mm 2 mps 708 mmHg 77%
    20:00 +23°C° 0 mm 2 mps 709 mmHg 77%
    21:00 +21°C° 0 mm 2 mps 709 mmHg 77%
    22:00 +21°C° 0 mm 2 mps 710 mmHg 76%
    23:00 +20°C° 0 mm 2 mps 710 mmHg 75%

    Tomorrow, 28 May, Tuesday

    Time Temperature Precipitation Wind Pressure Humidity
    00:00 +20°C° 0 mm 2 mps 709 mmHg 75%
    01:00 +20°C° 0 mm 2 mps 709 mmHg 74%
    02:00 +20°C° 0 mm 2 mps 709 mmHg 73%
    03:00 +21°C° 0 mm 1 mps 709 mmHg 72%
    04:00 +20°C° 0 mm 1 mps 709 mmHg 72%
    05:00 +20°C° 0.1 mm 1 mps 710 mmHg 72%
    06:00 +19°C° 0.1 mm 2 mps 710 mmHg 73%
    07:00 +19°C° 0.1 mm 2 mps 710 mmHg 74%
    08:00 +20°C° 0.1 mm 2 mps 711 mmHg 74%
    09:00 +20°C° 0.1 mm 2 mps 711 mmHg 74%
    10:00 +21°C° 0.1 mm 2 mps 711 mmHg 74%
    11:00 +23°C° 0 mm 2 mps 711 mmHg 68%
    12:00 +25°C° 0 mm 3 mps 711 mmHg 61%
    13:00 +27°C° 0 mm 3 mps 711 mmHg 55%
    14:00 +27°C° 0 mm 3 mps 710 mmHg 56%
    15:00 +26°C° 0 mm 3 mps 710 mmHg 57%
    16:00 +26°C° 0 mm 3 mps 710 mmHg 58%
    17:00 +24°C° 0 mm 3 mps 710 mmHg 63%
    18:00 +21°C° 0 mm 2 mps 710 mmHg 68%
    19:00 +21°C° 0 mm 1 mps 710 mmHg 72%
    20:00 +20°C° 0 mm 1 mps 710 mmHg 70%
    21:00 +20°C° 0 mm 1 mps 711 mmHg 68%
    22:00 +19°C° 0 mm 1 mps 711 mmHg 66%
    23:00 +19°C° 0 mm 1 mps 710 mmHg 65%

    Day after tomorrow, 29 May, Wednesday

    Time Temperature Precipitation Wind Pressure Humidity
    00:00 +19°C° 0 mm 1 mps 710 mmHg 63%
    01:00 +18°C° 0 mm 1 mps 709 mmHg 62%
    02:00 +18°C° 0 mm 1 mps 709 mmHg 63%
    03:00 +18°C° 0 mm 1 mps 709 mmHg 65%
    04:00 +16°C° 0 mm 1 mps 709 mmHg 66%
    05:00 +19°C° 0 mm 1 mps 709 mmHg 64%
    06:00 +20°C° 0 mm 1 mps 710 mmHg 62%
    07:00 +21°C° 0 mm 1 mps 710 mmHg 60%
    08:00 +22°C° 0 mm 1 mps 710 mmHg 58%
    09:00 +23°C° 0 mm 1 mps 710 mmHg 57%
    10:00 +24°C° 0 mm 1 mps 711 mmHg 56%
    11:00 +25°C° 0 mm 1 mps 710 mmHg 56%
    12:00 +26°C° 0 mm 1 mps 710 mmHg 57%
    13:00 +25°C° 0 mm 0 mps 709 mmHg 57%
    14:00 +25°C° 0 mm 0 mps 709 mmHg 59%
    15:00 +24°C° 0 mm 0 mps 708 mmHg 61%
    16:00 +24°C° 0 mm 0 mps 708 mmHg 63%
    17:00 +25°C° 0 mm 1 mps 708 mmHg 67%
    18:00 +24°C° 0 mm 1 mps 708 mmHg 71%
    19:00 +23°C° 0 mm 1 mps 708 mmHg 76%
    20:00 +23°C° 0 mm 1 mps 708 mmHg 78%
    21:00 +22°C° 0 mm 1 mps 708 mmHg 80%
    22:00 +22°C° 0 mm 1 mps 709 mmHg 82%
    23:00 +20°C° 0.2 mm 0 mps 708 mmHg 83%

    30 May, Thursday

    Time Temperature Precipitation Wind Pressure Humidity
    00:00 +20°C° 0.2 mm 0 mps 708 mmHg 84%
    01:00 +20°C° 0.2 mm 0 mps 708 mmHg 85%
    02:00 +19°C° 0.7 mm 0 mps 707 mmHg 87%
    03:00 +19°C° 0.7 mm 0 mps 707 mmHg 88%
    04:00 +19°C° 0.7 mm 0 mps 707 mmHg 90%
    05:00 +19°C° 0.5 mm 0 mps 707 mmHg 90%
    06:00 +20°C° 0.5 mm 0 mps 707 mmHg 89%
    07:00 +20°C° 0.5 mm 0 mps 708 mmHg 89%
    08:00 +21°C° 0.1 mm 0 mps 708 mmHg 87%
    09:00 +22°C° 0.1 mm 0 mps 708 mmHg 84%
    10:00 +22°C° 0.1 mm 0 mps 708 mmHg 81%
    11:00 +24°C° 0 mm 0 mps 708 mmHg 76%
    12:00 +26°C° 0 mm 0 mps 707 mmHg 71%
    13:00 +28°C° 0 mm 0 mps 707 mmHg 67%
    14:00 +27°C° 0.3 mm 0 mps 707 mmHg 70%
    15:00 +26°C° 0.3 mm 0 mps 706 mmHg 74%
    16:00 +27°C° 0.3 mm 1 mps 706 mmHg 78%
    17:00 +26°C° 0.8 mm 1 mps 706 mmHg 81%
    18:00 +25°C° 0.8 mm 1 mps 706 mmHg 85%
    19:00 +24°C° 0.8 mm 1 mps 706 mmHg 89%
    20:00 +24°C° 1.2 mm 1 mps 707 mmHg 90%
    21:00 +22°C° 1.2 mm 0 mps 707 mmHg 91%
    22:00 +22°C° 1.2 mm 0 mps 708 mmHg 93%
    23:00 +21°C° 1.5 mm 0 mps 707 mmHg 94%

    31 May, Friday

    Time Temperature Precipitation Wind Pressure Humidity
    00:00 +21°C° 1.5 mm 0 mps 707 mmHg 95%
    01:00 +21°C° 1.5 mm 0 mps 707 mmHg 95%
    02:00 +23°C° 2.5 mm 1 mps 707 mmHg 96%
    03:00 +23°C° 2.5 mm 1 mps 707 mmHg 96%
    04:00 +23°C° 2.5 mm 1 mps 707 mmHg 97%
    05:00 +23°C° 1.5 mm 1 mps 707 mmHg 96%
    06:00 +23°C° 1.5 mm 1 mps 707 mmHg 96%
    07:00 +23°C° 1.5 mm 1 mps 708 mmHg 95%
    08:00 +24°C° 0.3 mm 1 mps 708 mmHg 92%
    09:00 +25°C° 0.3 mm 1 mps 708 mmHg 88%
    10:00 +26°C° 0.3 mm 1 mps 708 mmHg 85%
    11:00 +26°C° 0.6 mm 1 mps 708 mmHg 85%
    12:00 +23°C° 0.6 mm 0 mps 707 mmHg 86%
    13:00 +23°C° 0.6 mm 0 mps 707 mmHg 87%
    14:00 +23°C° 0.5 mm 0 mps 706 mmHg 87%
    15:00 +25°C° 0.5 mm 1 mps 706 mmHg 88%
    16:00 +25°C° 0.5 mm 1 mps 706 mmHg 89%
    17:00 +24°C° 0.1 mm 1 mps 706 mmHg 90%
    18:00 +24°C° 0.1 mm 1 mps 706 mmHg 92%
    19:00 +21°C° 0.1 mm 0 mps 707 mmHg 93%
    20:00 +21°C° 0.1 mm 0 mps 707 mmHg 93%
    21:00 +21°C° 0.1 mm 0 mps 707 mmHg 94%
    22:00 +21°C° 0.1 mm 0 mps 707 mmHg 94%
    23:00 +21°C° 0.1 mm 0 mps 707 mmHg 95%

    1 June, Saturday

    Time Temperature Precipitation Wind Pressure Humidity
    00:00 +20°C° 0.1 mm 0 mps 706 mmHg 95%
    01:00 +20°C° 0.1 mm 0 mps 706 mmHg 95%
    02:00 +20°C° 0.1 mm 0 mps 706 mmHg 95%
    03:00 +20°C° 0.1 mm 0 mps 706 mmHg 95%
    04:00 +20°C° 0.1 mm 0 mps 706 mmHg 96%
    05:00 +21°C° 0.5 mm 0 mps 706 mmHg 94%
    06:00 +21°C° 0.5 mm 0 mps 706 mmHg 92%
    07:00 +22°C° 0.5 mm 0 mps 707 mmHg 90%
    08:00 +22°C° 1.3 mm 0 mps 707 mmHg 90%
    09:00 +22°C° 1.3 mm 0 mps 707 mmHg 90%
    10:00 +24°C° 1.3 mm 1 mps 707 mmHg 90%
    11:00 +25°C° 1.2 mm 1 mps 706 mmHg 90%
    12:00 +25°C° 1.2 mm 1 mps 706 mmHg 90%
    13:00 +25°C° 1.2 mm 1 mps 705 mmHg 90%
    14:00 +25°C° 0.9 mm 1 mps 705 mmHg 91%
    15:00 +22°C° 0.9 mm 0 mps 705 mmHg 92%
    16:00 +22°C° 0.9 mm 0 mps 704 mmHg 92%
    17:00 +22°C° 0.5 mm 0 mps 704 mmHg 94%
    18:00 +21°C° 0.5 mm 0 mps 705 mmHg 95%
    19:00 +21°C° 0.5 mm 0 mps 705 mmHg 96%
    20:00 +21°C° 0.1 mm 0 mps 705 mmHg 96%
    21:00 +21°C° 0.1 mm 0 mps 705 mmHg 97%
    22:00 +21°C° 0.1 mm 0 mps 705 mmHg 97%
    23:00 +20°C° 0 mm 0 mps 704 mmHg 97%
    Show more